This is the latest recevied weather packets stored in our database for station/object KB2SKP. If no packets are shown the sender has not sent any weather packets the latest 10 day(s).
| Time | Temp. | Humidity | Pressure | Rain* | Wind** | Luminosity | Snow |
|---|---|---|---|---|---|---|---|
| 1778153601 | 12.78° C | 90% | 1008.6 hPa | 0 mm | - | 16 W/m² | - |
| 1778153298 | 12.78° C | 89% | 1008.8 hPa | 0 mm | - | 13 W/m² | - |
| 1778152995 | 12.78° C | 90% | 1008.6 hPa | 0 mm | - | 11 W/m² | - |
| 1778152693 | 12.78° C | 91% | 1008.6 hPa | 0 mm | - | 6 W/m² | - |
| 1778152389 | 12.78° C | 90% | 1008.3 hPa | 0 mm | - | 5 W/m² | - |
| 1778152085 | 12.78° C | 90% | 1008.1 hPa | 0 mm | - | 5 W/m² | - |
| 1778151781 | 12.78° C | 90% | 1008.7 hPa | 0 mm | - | 3 W/m² | - |
| 1778151479 | 12.78° C | 90% | 1008.4 hPa | 0 mm | - | 3 W/m² | - |
| 1778151174 | 12.78° C | 90% | 1008.2 hPa | 0 mm | - | 4 W/m² | - |
| 1778150871 | 12.22° C | 91% | 1008.1 hPa | 0 mm | - | 4 W/m² | - |
| 1778150568 | 12.78° C | 92% | 1007.4 hPa | 0 mm | - | 3 W/m² | - |
| 1778150264 | 12.78° C | 91% | 1007.5 hPa | 0 mm | - | 2 W/m² | - |
| 1778149955 | 12.78° C | 90% | 1007.7 hPa | 0 mm | - | 1 W/m² | - |
| 1778149651 | 12.78° C | 89% | 1007.7 hPa | 0 mm | - | 1 W/m² | - |
| 1778149348 | 13.33° C | 87% | 1008 hPa | 0 mm | - | 1 W/m² | - |
| 1778149044 | 13.33° C | 86% | 1007.8 hPa | 0 mm | - | 0 W/m² | - |
| 1778148740 | 13.33° C | 86% | 1007.9 hPa | 0 mm | - | 0 W/m² | - |
| 1778148437 | 13.89° C | 87% | 1007.8 hPa | 0 mm | - | 0 W/m² | - |
| 1778148135 | 13.89° C | 87% | 1008 hPa | 0 mm | - | 0 W/m² | - |
| 1778147833 | 13.89° C | 88% | 1007.6 hPa | 0 mm | - | 0 W/m² | - |
| 1778147529 | 13.89° C | 87% | 1007.2 hPa | 0 mm | - | 0 W/m² | - |
| 1778147226 | 13.89° C | 89% | 1007.2 hPa | 0 mm | - | 0 W/m² | - |
| 1778146923 | 13.89° C | 89% | 1007.3 hPa | 0 mm | - | 0 W/m² | - |
| 1778146620 | 13.89° C | 89% | 1007.2 hPa | 0 mm | - | 0 W/m² | - |
| 1778146319 | 13.89° C | 89% | 1007.2 hPa | 0 mm | - | 0 W/m² | - |
* Rain latest hour (hover to see other rain measurements)
** Current wind speed in m/s (hover to see current wind gust speed)